Wind_Speed
73 71 71 69 64 60 57 57 54 50 44 50 48 38 35 31 29 24 19 11 9 8 3 4 8 12 17 19 23 25 26 29 29 30 31 28 32 36 36 34 34 32 31 30
77 75 74 71 68 65 62 60 60 56 48 52 51 44 40 37 32 26 24 17 12 9 6 2 7 7 14 18 20 21 24 24 28 28 28 30 26 32 34 34 33 33 31 30
82 79 76 74 73 68 67 64 64 63 62 47 49 44 42 40 34 27 24 20 19 15 11 4 3 3 12 17 18 18 20 20 23 24 25 26 26 26 29 32 33 32 32 32
83 80 79 78 77 75 70 68 66 64 61 59 54 49 46 39 37 32 29 23 21 18 13 10 4 3 7 14 19 19 16 18 18 19 22 23 24 25 26 28 30 32 31 31
83 83 82 80 81 80 73 69 67 64 64 61 59 55 53 44 39 38 37 32 31 23 15 17 11 6 3 9 14 21 12 14 15 16 16 15 16 23 25 24 26 28 30 31
76 84 84 84 81 80 78 72 69 65 65 59 62 59 58 55 48 44 39 35 34 31 20 23 18 13 7 9 12 14 11 9 10 12 12 13 16 15 17 18 18 21 22 26
74 80 83 84 84 81 79 76 71 67 66 68 68 61 54 50 49 50 46 40 39 42 32 27 23 22 16 9 7 10 9 6 6 7 8 10 10 12 16 12 13 12 18 18
77 78 80 82 83 81 81 80 75 73 70 67 68 64 60 54 55 58 52 48 46 46 39 35 25 27 22 11 7 5 10 7 5 6 4 5 4 8 13 15 14 15 15 13
82 80 81 83 85 84 83 82 80 76 74 70 65 62 60 58 55 58 55 52 49 51 46 43 35 28 26 23 13 8 9 8 10 7 4 1 4 3 7 11 12 15 13 13
85 82 81 83 86 84 86 86 81 79 79 74 70 69 61 65 63 54 53 49 49 51 50 47 41 32 32 29 21 17 19 15 18 15 10 3 4 7 8 7 6 9 10 11
88 89 86 84 82 84 85 85 83 82 81 78 74 74 76 80 70 65 58 53 48 52 52 50 46 39 37 35 27 24 23 25 20 18 15 7 8 9 5 10 8 5 1 7
88 91 87 86 87 86 86 87 87 85 82 82 80 77 82 82 74 77 74 68 55 53 53 51 47 43 43 43 37 35 35 32 23 23 22 14 15 13 7 11 13 12 10 8
88 88 90 90 87 87 85 87 86 86 88 86 84 85 88 86 80 66 67 73 74 62 60 58 56 56 56 50 49 42 42 35 33 27 26 21 23 19 12 13 18 20 17 11
90 89 88 92 93 92 86 83 86 86 87 89 88 88 89 87 81 79 67 69 72 75 60 58 58 52 49 47 50 45 37 35 35 33 30 29 26 25 19 17 19 22 22 19
87 92 90 90 90 90 88 85 86 87 86 89 93 90 90 90 88 84 84 67 65 68 71 64 66 53 56 48 54 52 53 52 45 41 37 36 31 30 28 22 21 26 28 26
79 88 94 92 91 91 95 93 89 89 87 87 90 92 90 89 89 90 87 85 76 72 68 67 65 68 57 55 47 61 61 60 57 53 47 42 35 34 33 29 25 28 30 29
74 75 85 92 93 92 94 98 95 89 88 87 90 90 94 92 91 89 90 88 83 86 80 72 71 69 65 58 60 59 58 54 61 57 55 52 49 47 42 39 34 33 34 36
79 76 75 80 88 95 97 95 97 95 92 90 88 88 91 94 93 92 90 90 89 85 86 87 78 78 71 74 75 57 50 54 55 54 60 54 54 50 52 48 43 39 42 41
81 76 72 73 75 85 96 96 96 100 97 96 93 91 90 92 96 92 90 90 90 90 90 89 86 76 71 73 65 56 55 61 63 64 66 62 59 55 57 54 52 50 49 49
81 76 75 74 72 76 84 92 98 100 102 98 96 96 93 90 91 93 94 92 92 91 93 93 91 88 84 75 78 79 76 67 68 71 73 65 60 64 62 65 60 55 55 55
79 80 79 74 71 68 71 82 93 102 102 101 99 98 96 94 89 88 94 96 95 94 93 91 92 92 89 91 87 79 79 80 81 71 66 65 61 70 68 66 67 63 59 58
73 81 81 76 72 67 66 73 81 90 99 102 102 99 97 95 93 95 93 93 97 99 98 95 94 93 92 93 93 95 89 88 86 88 88 81 74 72 75 76 75 75 77 75
64 79 82 79 74 74 72 70 72 79 90 97 102 102 99 97 97 96 97 96 95 97 99 100 100 98 95 93 92 92 101 98 92 91 90 90 92 87 85 76 78 78 76 82
50 63 78 83 78 77 77 75 73 74 81 87 96 101 103 102 101 99 99 97 98 97 97 99 101 102 100 99 97 95 96 105 103 98 96 95 94 94 89 87 85 81 81 82
29 44 59 70 81 83 80 78 76 74 76 81 88 94 98 102 104 102 101 100 99 100 98 99 97 97 98 101 99 100 101 101 103 108 111 111 109 108 107 102 100 97 99 96
18 27 37 51 62 71 82 85 84 80 77 78 82 87 92 97 101 104 105 104 103 101 101 100 98 99 98 97 97 98 100 102 103 104 104 103 103 103 101 100 99 99 98 98
Wind_Direction
211 211 211 210 209 206 206 193 208 203 206 211 211 218 221 228 235 237 249 248 229 218 209 40 354 359 35 44 40 53 50 48 57 62 59 57 60 60 61 62 60 60 58 61
210 211 211 210 208 208 207 204 204 201 201 215 218 221 222 223 226 234 243 232 222 208 204 28 342 350 44 38 34 39 52 50 47 59 56 57 61 61 63 66 67 63 61 62
210 210 209 210 209 209 210 208 208 205 209 209 212 221 219 218 214 224 228 225 218 221 212 244 295 91 41 24 30 32 44 48 50 52 50 50 56 67 66 68 69 67 67 64
211 210 209 208 210 209 210 210 210 211 210 212 212 217 218 213 221 226 234 232 221 220 209 215 214 136 43 21 19 12 30 42 47 58 60 52 60 66 66 73 73 69 66 67
210 211 211 210 211 211 208 212 212 210 213 215 218 214 215 223 225 222 237 237 227 228 218 215 194 174 52 8 351 351 11 33 36 56 61 49 36 61 61 68 73 74 66 66
212 212 211 213 211 211 211 211 212 212 215 215 219 220 221 226 230 230 214 227 234 229 226 221 222 217 252 316 339 338 343 13 45 54 63 46 36 51 60 62 69 79 74 73
210 212 213 214 213 211 212 211 212 213 212 210 219 220 223 217 220 221 220 219 221 236 229 226 227 236 256 290 335 318 312 332 8 47 76 71 42 41 43 44 53 66 75 73
212 210 212 214 216 213 213 213 211 212 214 213 218 217 219 219 215 220 221 229 230 231 230 233 229 234 247 252 289 269 268 297 303 354 26 102 71 43 56 50 51 55 62 66
212 211 211 213 214 214 214 215 212 212 216 214 214 217 215 217 215 217 221 224 225 223 226 230 233 242 244 250 240 234 274 298 284 293 291 292 145 84 81 80 45 42 45 54
216 214 212 213 214 214 214 215 214 212 215 215 213 208 213 207 211 211 213 217 224 228 227 232 235 245 252 243 246 228 258 276 286 274 275 291 146 172 134 116 76 63 32 46
216 216 214 213 215 216 214 215 215 215 214 216 215 211 206 211 210 212 217 222 231 236 239 242 244 246 249 247 241 232 243 260 273 279 255 266 215 206 260 220 173 154 312 40
216 217 215 215 215 216 215 215 214 214 214 215 215 216 210 210 216 221 225 227 214 227 235 239 241 237 245 247 250 239 246 260 263 257 248 242 242 227 254 227 224 210 222 232
215 217 217 217 215 217 217 215 215 215 216 215 215 216 217 218 219 215 227 225 224 220 231 232 238 240 246 247 247 240 250 254 261 245 245 232 245 235 254 263 236 233 227 222
216 216 217 217 215 216 217 217 216 215 216 218 217 218 220 221 220 213 214 230 225 225 223 225 230 232 235 237 241 244 243 244 248 245 247 230 226 245 244 260 235 232 233 225
217 218 219 218 217 217 218 218 218 216 216 217 220 220 221 222 222 220 217 213 226 223 218 222 230 236 232 241 240 238 245 247 245 247 246 240 228 236 235 248 241 238 233 232
216 217 217 218 218 216 217 217 219 219 217 217 220 223 223 224 225 225 223 221 217 225 228 229 222 221 232 224 239 246 248 249 251 255 252 239 224 227 231 230 236 253 237 233
215 217 218 218 218 219 219 219 219 220 220 218 220 221 224 225 225 227 227 226 224 223 222 223 233 224 228 229 238 239 243 249 250 254 247 242 236 237 230 231 228 238 243 243
213 215 218 218 217 219 219 220 220 220 220 221 221 221 225 226 226 227 228 228 227 226 227 227 226 234 235 234 233 238 235 236 244 241 242 242 245 237 232 234 235 244 248 248
215 216 218 220 217 220 219 220 221 221 221 221 221 222 224 226 228 228 229 230 230 229 228 229 227 220 223 229 226 225 232 236 245 240 238 245 245 236 233 238 242 241 247 249
214 216 221 222 222 220 218 220 220 220 221 223 223 223 224 226 229 229 229 230 232 232 232 230 230 228 224 221 229 238 234 235 233 241 247 252 243 239 240 243 244 241 242 247
213 214 219 222 223 222 222 220 220 220 220 222 224 224 225 226 228 230 231 231 232 233 233 235 235 233 229 225 226 229 233 231 228 232 239 242 237 233 238 243 244 244 246 246
215 215 221 221 222 224 224 223 223 224 223 223 224 226 227 228 228 230 231 232 233 234 235 235 236 236 236 234 231 232 231 229 230 233 235 236 237 243 240 244 249 248 252 254
220 218 221 224 223 224 226 224 225 226 226 226 225 226 227 227 228 230 232 233 235 237 237 238 238 237 237 237 236 234 229 231 231 232 234 237 240 242 247 247 250 257 254 248
225 224 224 226 227 228 229 229 226 225 227 229 229 228 228 228 228 228 231 232 235 236 237 238 239 240 239 240 239 239 237 233 234 236 237 240 241 244 241 243 245 244 247 248
228 227 229 229 228 230 232 233 233 230 230 230 230 231 231 232 231 230 231 232 233 236 237 238 240 240 241 242 241 242 241 241 240 240 243 245 248 250 251 251 252 252 249 249
233 234 232 233 233 232 233 235 236 236 234 233 233 231 233 233 234 234 235 234 234 235 237 239 240 242 242 242 243 242 243 243 245 246 246 247 248 249 252 253 254 254 253 252
Height
10883 10897 10906 10918 10933 10943 10953 10965 10970 10980 10980 10986 10991 10996 11002 11006 11009 11012 11014 11017 11017 11019 11020 11020 11020 11021 11019 11017 11017 11014 11012 11010 11007 11005 11004 11001 10997 10992 10989 10986 10983 10980 10978 10976
10868 10878 10895 10911 10922 10933 10942 10952 10960 10968 10972 10977 10984 10992 10998 11003 11005 11009 11011 11015 11016 11017 11019 11020 11021 11023 11021 11019 11019 11018 11017 11015 11014 11010 11009 11007 11003 11000 10997 10994 10991 10988 10986 10983
10850 10865 10883 10899 10910 10920 10930 10939 10948 10958 10966 10971 10980 10986 10991 10996 11002 11006 11008 11011 11013 11016 11018 11019 11021 11023 11021 11021 11021 11021 11020 11019 11017 11016 11014 11012 11010 11007 11005 11002 10999 10996 10993 10990
10841 10859 10871 10884 10894 10905 10917 10928 10937 10947 10960 10965 10970 10980 10985 10990 10996 11002 11004 11007 11011 11013 11015 11018 11021 11023 11022 11022 11022 11023 11022 11022 11020 11018 11017 11018 11017 11014 11011 11008 11005 11003 11001 10997
10832 10844 10857 10869 10880 10891 10910 10920 10931 10942 10949 10957 10964 10972 10979 10984 10988 10996 11000 11003 11007 11010 11013 11016 11018 11022 11022 11022 11023 11023 11024 11024 11023 11022 11021 11022 11022 11019 11017 11015 11012 11009 11008 11005
10824 10833 10845 10855 10869 10882 10896 10911 10922 10933 10939 10947 10955 10963 10970 10977 10982 10987 10994 10999 11001 11005 11009 11013 11015 11018 11021 11022 11023 11024 11023 11025 11025 11024 11024 11024 11024 11022 11022 11020 11017 11014 11013 11010
10806 10818 10832 10845 10855 10873 10886 10899 10910 10922 10930 10936 10943 10953 10961 10968 10975 10979 10985 10991 10996 10999 11004 11007 11012 11015 11018 11021 11022 11023 11023 11023 11025 11025 11025 11025 11026 11024 11024 11024 11021 11019 11015 11015
10789 10806 10819 10832 10847 10861 10873 10883 10896 10907 10913 10924 10932 10943 10951 10959 10966 10971 10976 10982 10990 10993 10998 11002 11007 11011 11015 11019 11020 11022 11023 11022 11024 11025 11024 11026 11025 11026 11025 11026 11025 11025 11020 11019
10773 10787 10802 10816 10827 10844 10858 10872 10883 10896 10904 10914 10924 10933 10943 10950 10957 10963 10970 10977 10981 10985 10990 10995 11001 11006 11011 11016 11017 11020 11022 11022 11022 11024 11025 11025 11026 11026 11026 11026 11026 11026 11025 11022
10763 10775 10788 10795 10809 10826 10843 10854 10873 10883 10888 10903 10914 10924 10932 10938 10946 10953 10962 10969 10973 10978 10983 10988 10993 11000 11005 11010 11013 11016 11019 11021 11021 11023 11023 11024 11025 11026 11026 11026 11026 11026 11028 11024
10747 10758 10772 10786 10805 10816 10831 10843 10860 10871 10878 10891 10903 10908 10920 10923 10931 10942 10951 10960 10967 10971 10976 10979 10987 10994 10998 11002 11007 11010 11014 11016 11019 11021 11022 11022 11024 11025 11026 11027 11026 11025 11028 11027
10729 10741 10763 10776 10783 10798 10813 10826 10840 10856 10869 10875 10888 10897 10907 10911 10920 10931 10940 10949 10960 10960 10967 10971 10978 10984 10988 10994 10998 11003 11005 11010 11015 11018 11021 11020 11021 11023 11023 11025 11026 11026 11026 11026
10716 10730 10745 10760 10774 10784 10800 10813 10829 10842 10848 10861 10872 10878 10883 10896 10910 10920 10925 10935 10945 10954 10957 10963 10969 10976 10980 10985 10990 10995 10998 11002 11008 11012 11016 11017 11017 11019 11021 11022 11023 11023 11023 11024
10702 10716 10730 10743 10752 10765 10784 10802 10812 10824 10835 10845 10856 10862 10872 10882 10894 10907 10915 10920 10931 10940 10949 10952 10961 10965 10970 10975 10978 10984 10989 10993 10998 11005 11009 11012 11012 11015 11017 11019 11021 11022 11021 11020
10687 10702 10713 10727 10746 10763 10774 10784 10794 10807 10816 10830 10833 10847 10854 10866 10876 10891 10905 10913 10919 10928 10936 10942 10949 10957 10959 10963 10968 10973 10979 10983 10989 10995 11001 11005 11006 11009 11012 11013 11015 11017 11017 11017
10673 10683 10695 10710 10727 10741 10750 10764 10776 10790 10804 10815 10824 10830 10840 10852 10862 10874 10886 10899 10910 10918 10924 10930 10936 10946 10945 10955 10955 10962 10965 10970 10976 10983 10989 10994 10998 11001 11004 11005 11008 11011 11013 11013
10660 10670 10681 10694 10712 10724 10735 10746 10761 10778 10788 10801 10803 10815 10823 10834 10846 10856 10867 10881 10895 10903 10908 10915 10920 10928 10936 10941 10945 10948 10954 10957 10961 10968 10973 10982 10988 10993 10994 10996 10998 11002 11005 11006
10643 10654 10667 10682 10694 10702 10714 10732 10748 10761 10772 10782 10793 10802 10806 10818 10827 10837 10849 10862 10873 10883 10888 10898 10909 10914 10923 10929 10932 10937 10942 10948 10950 10956 10958 10967 10974 10981 10984 10986 10989 10992 10996 10999
10633 10645 10656 10664 10676 10687 10702 10716 10730 10742 10753 10761 10772 10783 10789 10798 10808 10825 10835 10844 10853 10863 10869 10878 10891 10901 10908 10914 10919 10923 10929 10935 10937 10940 10944 10953 10961 10966 10971 10975 10978 10981 10985 10988
10622 10636 10644 10655 10665 10671 10688 10700 10709 10719 10731 10746 10756 10764 10773 10784 10793 10807 10815 10824 10831 10841 10850 10860 10869 10881 10891 10899 10902 10908 10916 10924 10926 10926 10928 10937 10946 10951 10956 10960 10965 10968 10970 10975
10611 10621 10628 10641 10651 10663 10671 10679 10689 10698 10714 10726 10736 10748 10757 10766 10784 10790 10795 10804 10815 10824 10831 10842 10851 10862 10872 10879 10888 10893 10897 10903 10908 10913 10914 10920 10927 10932 10938 10943 10948 10953 10956 10959
10600 10611 10616 10628 10639 10650 10657 10664 10673 10689 10701 10709 10720 10733 10742 10757 10764 10766 10775 10784 10792 10802 10812 10822 10830 10840 10850 10859 10870 10878 10882 10883 10886 10893 10896 10901 10906 10912 10918 10923 10930 10935 10939 10942
10590 10600 10606 10614 10627 10634 10639 10650 10660 10669 10680 10691 10702 10713 10723 10736 10740 10748 10756 10765 10774 10783 10792 10799 10808 10819 10828 10838 10847 10854 10860 10866 10869 10874 10878 10881 10885 10895 10898 10901 10906 10913 10919 10923
10579 10587 10595 10603 10613 10621 10627 10636 10645 10652 10659 10669 10681 10693 10703 10711 10719 10728 10737 10746 10752 10760 10769 10776 10784 10794 10806 10815 10824 10831 10838 10845 10848 10852 10856 10860 10864 10870 10878 10882 10887 10892 10896 10899
10570 10576 10582 10589 10598 10606 10613 10621 10629 10638 10644 10652 10661 10671 10682 10691 10699 10708 10716 10725 10732 10737 10745 10752 10762 10772 10780 10788 10800 10806 10812 10818 10824 10830 10834 10840 10845 10847 10851 10857 10861 10866 10872 10877
10565 10569 10573 10578 10583 10590 10597 10604 10611 10619 10627 10634 10641 10650 10660 10670 10679 10687 10695 10703 10710 10717 10724 10731 10740 10745 10754 10763 10771 10778 10785 10792 10799 10805 10810 10817 10821 10823 10827 10831 10834 10838 10845 10850